[TLELIST]

  • This mailing list is a public mailing list - anyone may join or leave, at any time.
  • This mailing list is announce-only.

International Space Station (ISS) / Hubble Space Telescope (HST) / Chandra X-Ray Observatory Orbital Data via EMAIL

Privacy Policy:

Private list

Archived Messages

 

[TLELIST] Current TLEs

June 9th 2026 PDT

0 HST 1 20580U 90037B 26160.25429042 .00004810 00000-0 15014-3 0 9994 2 20580 28.4711 134.7882 0001992 63.4353 296.6447 15.30659901787355 0 ISS (ZARYA) 1 25544U 98067A 26160.19103139 .00006847 00000-0 12924-3 0 9998 2 25544 51.6332 339.6717 0006890 149.5560 210.5830 15.49678250570515 0 CXO 1 25867U 99040B 26161.44248451 .00000667 00000-0 00000-0 0 9997 2 25867 56.0540 116.8503 7852548 310.2578 0.2529 0.37805334 17299 ...Continue Reading

[TLELIST] Current TLEs

June 8th 2026 PDT

0 HST 1 20580U 90037B 26158.29828937 .00006010 00000-0 18954-3 0 9991 2 20580 28.4712 148.1547 0001938 44.7656 315.3096 15.30642118787059 0 ISS (ZARYA) 1 25544U 98067A 26158.90128688 .00007994 00000-0 14961-3 0 9997 2 25544 51.6338 346.0598 0006926 145.2709 214.8733 15.49660544570312 0 CXO 1 25867U 99040B 26161.44248451 .00000667 00000-0 00000-0 0 9997 2 25867 56.0540 116.8503 7852548 310.2578 0.2529 0.37805334 17299 ...Continue Reading

[TLELIST] Current TLEs

June 7th 2026 PDT

0 HST 1 20580U 90037B 26158.29828938 .00006010 00000-0 18954-3 0 9992 2 20580 28.4712 148.1547 0001938 44.7656 315.3096 15.30642118787059 0 ISS (ZARYA) 1 25544U 98067A 26157.86947977 .00009276 00000-0 17237-3 0 9995 2 25544 51.6338 351.1688 0006978 142.0049 218.1433 15.49642340570158 0 CXO 1 25867U 99040B 26158.79821798 .00000708 00000-0 00000-0 0 9998 2 25867 55.9928 116.9568 7854200 310.2595 0.2905 0.37800379 17286 ...Continue Reading

[TLELIST] Current TLEs

June 6th 2026 PDT

0 HST 1 20580U 90037B 26156.34226219 .00005266 00000-0 16530-3 0 9990 2 20580 28.4714 161.5212 0001846 24.4267 335.6416 15.30618516786752 0 ISS (ZARYA) 1 25544U 98067A 26157.22459382 .00054840 00000-0 97346-3 0 9999 2 25544 51.6331 354.3683 0007056 137.0383 223.1158 15.49647679570604 0 CXO 1 25867U 99040B 26158.79821798 .00000708 00000-0 00000-0 0 9998 2 25867 55.9928 116.9568 7854200 310.2595 0.2905 0.37800379 17286 ...Continue Reading

[TLELIST] Current TLEs

June 5th 2026 PDT

0 HST 1 20580U 90037B 26153.34296606 .00005773 00000-0 18209-3 0 9992 2 20580 28.4711 182.0162 0001701 354.7953 5.2625 15.30586461786296 0 ISS (ZARYA) 1 25544U 98067A 26156.06378630 .00007786 00000-0 14618-3 0 9994 2 25544 51.6329 0.1115 0007003 133.6992 226.4578 15.49608794569871 0 CXO 1 25867U 99040B 26158.79821798 .00000708 00000-0 00000-0 0 9998 2 25867 55.9928 116.9568 7854200 310.2595 0.2905 0.37800379 17286 ...Continue Reading

[TLELIST] Current TLEs

June 4th 2026 PDT

0 HST 1 20580U 90037B 26153.34296606 .00005773 00000-0 18209-3 0 9992 2 20580 28.4711 182.0162 0001701 354.7953 5.2625 15.30586461786296 0 ISS (ZARYA) 1 25544U 98067A 26154.96745432 .00008451 00000-0 15807-3 0 9990 2 25544 51.6330 5.5404 0007082 130.0270 230.1341 15.49590346569705 0 CXO 1 25867U 99040B 26156.15341265 .00000679 00000-0 00000-0 0 9999 2 25867 55.9514 117.0331 7855938 310.2940 0.1967 0.37796078 17276 ...Continue Reading

[TLELIST] Current TLEs

June 3rd 2026 PDT

0 HST 1 20580U 90037B 26153.34296606 .00005773 00000-0 18209-3 0 9992 2 20580 28.4711 182.0162 0001701 354.7953 5.2625 15.30586461786296 0 ISS (ZARYA) 1 25544U 98067A 26154.06458266 .00009911 00000-0 18404-3 0 9995 2 25544 51.6331 10.0114 0007109 126.8176 233.3466 15.49574260569567 0 CXO 1 25867U 99040B 26156.15341265 .00000679 00000-0 00000-0 0 9999 2 25867 55.9514 117.0331 7855938 310.2940 0.1967 0.37796078 17276 ...Continue Reading

[TLELIST] Current TLEs

June 2nd 2026 PDT

0 HST 1 20580U 90037B 26152.49532724 .00006011 00000-0 18996-3 0 9990 2 20580 28.4714 187.8079 0001616 344.4856 15.5690 15.30576223786169 0 ISS (ZARYA) 1 25544U 98067A 26153.09720835 .00009906 00000-0 18407-3 0 9998 2 25544 51.6331 14.8020 0007169 124.3735 235.7933 15.49554083569415 0 CXO 1 25867U 99040B 26153.50844987 .00000595 00000-0 00000-0 0 9991 2 25867 55.9180 117.0902 7859056 310.3424 0.0689 0.37796441 17265 ...Continue Reading

[TLELIST] Current TLEs

June 1st 2026 PDT

0 HST 1 20580U 90037B 26152.23451408 .00005847 00000-0 18460-3 0 9993 2 20580 28.4714 189.5900 0001582 341.3793 18.6745 15.30573156786122 0 ISS (ZARYA) 1 25544U 98067A 26152.12982146 .00009579 00000-0 17840-3 0 9992 2 25544 51.6333 19.5912 0007212 120.4663 239.7039 15.49534343569266 0 CXO 1 25867U 99040B 26153.50844987 .00000595 00000-0 00000-0 0 9991 2 25867 55.9180 117.0902 7859056 310.3424 0.0689 0.37796441 17265 ...Continue Reading

[TLELIST] Current TLEs

May 31st 2026 PDT

0 HST 1 20580U 90037B 26151.19125608 .00007916 00000-0 25254-3 0 9995 2 20580 28.4718 196.7185 0001522 329.3794 30.6713 15.30562779785961 0 ISS (ZARYA) 1 25544U 98067A 26151.16242250 .00012606 00000-0 23226-3 0 9990 2 25544 51.6337 24.3812 0007232 116.8819 243.2910 15.49515140569113 0 CXO 1 25867U 99040B 26153.50844987 .00000595 00000-0 00000-0 0 9991 2 25867 55.9180 117.0902 7859056 310.3424 0.0689 0.37796441 17265 ...Continue Reading